Regional Weather Roundup
Issued by NWS Kansas City/Pleasant Hill, MO

Home | Current Version | Previous Version | Graphics & Text | Print | Product List | Glossary Off
Versions: 1 2 3 4 5 6 7 8 9 10 11 12 13 14 15 16 17 18 19 20 21 22 23 24 25 26 27 28 29 30 31 32 33 34 35 36 37 38 39 40 41 42 43 44 45 46 47 48 49 50

000
ASUS43 KEAX 290510
RWREAX

WEATHER ROUNDUP FOR EASTERN KANSAS AND NORTHWEST MISSOURI
NATIONAL WEATHER SERVICE KANSAS CITY/PLEASANT HILL MO
1200 AM CDT WED JUL 29 2015

KSZ040-057-103>105-MOZ028-029-037-043-290600-
...KANSAS CITY METROPOLITAN AREA...

CITY           SKY/WX    TMP DP  RH WIND       PRES   REMARKS
K.C. INTL      CLOUDY    84  72  67 SW9       29.94R
K.C. DOWNTOWN  CLEAR     86  73  65 S12       29.91S HX  93
LEES SUMMIT    CLEAR     83  72  69 S9        29.95S
OLATHE - IXD   CLEAR     82  73  74 S9        29.96R
OLATHE - OJC   CLEAR     80  73  79 S6        29.95R
LAWRENCE       PTCLDY    82  72  71 CALM      29.94R

$$

MOZ001>008-011>017-020>025-030>033-038>040-044>046-053-054-290600-
...NORTHERN AND CENTRAL MISSOURI...

CITY           SKY/WX    TMP DP  RH WIND       PRES   REMARKS
ST. JOSEPH     MOCLDY    81  76  84 N10       29.94R
MOSBY          CLEAR     81  72  74 SE3       29.92R
WARRENSBURG    CLEAR     79  72  78 S6        29.95S
WHITEMAN AFB   CLEAR     79  74  85 S9        29.95S
CLINTON          N/A     81  75  83 S5        29.97S
SEDALIA        CLEAR     81  75  82 S6        29.98S
WARSAW         NOT AVBL
CHILLICOTHE      N/A     84  76  76 SE5       29.94S HX  93
KIRKSVILLE     CLOUDY    76  65  68 VRB3      29.99F

$$

MOZ041-047>049-056>058-063>065-088>090-097-290600-
...EASTERN AND SOUTHERN MISSOURI...

CITY           SKY/WX    TMP DP  RH WIND       PRES   REMARKS
ST. LOUIS INTL PTCLDY    88  77  69 CALM      29.98R HX 100
SPIRIT OF STL  CLEAR     82  80  94 CALM      29.96R HX  94
COLUMBIA       CLEAR     79  76  90 S8        29.97S
JEFFERSON CITY CLEAR     83  76  79 SE5       29.96R HX  91
ROLLA          CLEAR     79  74  84 S3        30.00R
OSAGE BEACH    CLEAR     81  75  83 S3        29.99R
SPRINGFIELD    CLEAR     80  74  81 CALM      30.01R
BRANSON        CLEAR     81  75  83 CALM      30.03R
JOPLIN         CLEAR     80  74  81 SE6       30.00R
WEST PLAINS    CLEAR     77  74  90 CALM      30.05R FOG

$$

IAZ060-094-KSZ022-034>040-054-083-096-NEZ052-066-093-290600-
...KANSAS...SOUTHEAST NEBRASKA AND IOWA...

CITY           SKY/WX    TMP DP  RH WIND       PRES   REMARKS
TOPEKA         CLOUDY    86  75  69 W5        29.94R HX  95
MANHATTAN      PTCLDY    79  70  74 NE15G23   29.97R
EMPORIA        CLEAR     83  72  69 S12       29.95R
CHANUTE        CLEAR     77  72  84 S6        29.97R
WICHITA        PTCLDY    84  68  58 S10       29.96R
OMAHA          MOCLDY    73  64  73 N7        30.03R
LINCOLN        PTCLDY    68  63  84 N7        30.04R
FALLS CITY     LGT RAIN  72  71  97 N9G20     30.01R FOG
LAMONI         TSTM      71  69  93 SE8       30.01F FOG
DES MOINES     TSTM      72  69  90 NW3       29.97F

$$




USA.gov is the U.S. government's official web portal to all federal, state and local government web resources and services.